Tracking 35331 objects as of 15-Sep-2026
HD Live streaming from Space Station
objects crossing your sky now

FALCON 9 R/B

Track FALCON 9 R/B now!


NORAD ID: 40391
Int'l Code: 2015-007B
Launch date: February 11, 2015
Source: United States (US)
Launch site: AIR FORCE EASTERN TEST RANGE (AFETR)

Note: This is a ROCKET BODY
Your satellite tracking list
Your tracking list is empty




NASA's NSSDC Master Catalog

Two Line Element Set (TLE):
1 40391U 15007B   22042.19918981 -.00027866  00000-0  00000-0 0  9996
2 40391  34.5090  11.5527 8233381 150.1422  25.2112  0.04100887  1310
Source of the keplerian elements: AFSPC